User: anonymous   Login
Location: Unspecified
(0.0000°N, 0.0000°E)
Time: 03:30:33
(UTC+00:00)
Language:

Nova 2 - Orbit

View from above orbital plane
View from above orbital plane
View from above satellite
View from above satellite

Ground track
Ground track

The orbit data is extracted from the following two-line orbital elements,

1 19223U 88052A   17173.88642396 +.00000055 +00000-0 +11058-3 0  9993
2 19223 089.9667 086.9734 0028563 261.5356 213.8034 13.22651078400340
Epoch (UTC): 22 June 2017 21:16:27
Eccentricity: 0.0028563
inclination: 89.9667°
perigee height: 1153 km
apogee height: 1196 km
right ascension of ascending node: 86.9734°
argument of perigee: 261.5356°
revolutions per day: 13.22651078
mean anomaly at epoch: 213.8034°
orbit number at epoch: 40034

The dashed part of the orbit path shows where the satellite is in the earth's shadow,  

DLR